Location: Ca��n la Puerta
(32.5440°N, 116.6804°W)
Time: 00:12:10
(UTC+00:00)

Lacrosse 4 Rocket - Pass Details

Date: 15 June 2021
Orbit: 543 x 614 km, 68.0° (Epoch: 02 August)

Event Time Altitude Azimuth Distance (km) Brightness Sun altitude
Rises 12:08:42 0° 323° (NW) 2,720 4.8 -6.3°
Reaches altitude 10° 12:11:07 10° 312° (NW) 1,816 3.8 -5.9°
Maximum altitude 12:14:37 28° 252° (WSW) 1,026 2.2 -5.3°
Drops below altitude 10° 12:18:05 10° 192° (SSW) 1,797 3.5 -4.6°
Sets 12:20:27 0° 181° (S) 2,686 4.5 -4.2°
